DAL8635 KDEN-KSLC

Flight info

Callsign DAL8635
Flight time 1h 4m
Altitude 34000
Route ZIMMR4 CHNGY EKR RACER JAZZZ1
Aircraft A321/M-SDE3FGHIRWY/LB1

Departure

Time 2026-05-04 00:38
Airport Denver International Airport (KDEN)

Arrival

Time 2026-05-04 01:43
Airport Salt Lake City International Airport (KSLC)
Time Latitude Longitude Altitude Speed Heading
2026-05-04 00:12 39.85453 -104.67554 5384 ft 0 kts 181°
2026-05-04 00:30 39.85454 -104.67554 5383 ft 1 kts 181°
2026-05-04 00:31 39.85479 -104.67554 5382 ft 4 kts 180°
2026-05-04 00:31 39.85506 -104.67556 5383 ft 4 kts 167°
2026-05-04 00:31 39.85530 -104.67567 5380 ft 4 kts 141°
2026-05-04 00:31 39.85542 -104.67590 5382 ft 2 kts 90°
2026-05-04 00:32 39.85542 -104.67597 5381 ft 0 kts 90°
2026-05-04 00:33 39.85552 -104.67564 5383 ft 14 kts 62°
2026-05-04 00:33 39.85593 -104.67681 5382 ft 11 kts 268°
2026-05-04 00:33 39.85598 -104.67859 5382 ft 28 kts 270°
2026-05-04 00:34 39.85599 -104.68127 5382 ft 29 kts 269°
2026-05-04 00:34 39.85598 -104.68325 5377 ft 13 kts 271°
2026-05-04 00:34 39.85599 -104.68397 5377 ft 12 kts 270°
2026-05-04 00:34 39.85559 -104.68511 5371 ft 10 kts 186°
2026-05-04 00:35 39.85516 -104.68516 5375 ft 2 kts 186°
2026-05-04 00:35 39.85492 -104.68519 5375 ft 8 kts 184°
2026-05-04 00:35 39.85380 -104.68515 5375 ft 25 kts 179°
2026-05-04 00:35 39.85217 -104.68536 5376 ft 17 kts 222°
2026-05-04 00:36 39.85201 -104.68701 5369 ft 22 kts 270°
2026-05-04 00:36 39.85200 -104.68915 5360 ft 26 kts 270°
2026-05-04 00:36 39.85195 -104.69168 5351 ft 29 kts 271°
2026-05-04 00:36 39.85202 -104.69403 5340 ft 24 kts 270°
2026-05-04 00:37 39.85202 -104.69590 5340 ft 17 kts 270°
2026-05-04 00:37 39.85270 -104.69666 5338 ft 15 kts
2026-05-04 00:37 39.85422 -104.69655 5337 ft 31 kts
2026-05-04 00:37 39.85849 -104.69652 5340 ft 88 kts
2026-05-04 00:38 39.86634 -104.69644 5335 ft 135 kts
2026-05-04 00:38 39.87672 -104.69630 5402 ft 163 kts 358°
2026-05-04 00:38 39.88830 -104.69582 5873 ft 170 kts 357°
2026-05-04 00:38 39.90024 -104.69552 6450 ft 174 kts 354°
2026-05-04 00:39 39.91266 -104.69569 6893 ft 181 kts 356°
2026-05-04 00:39 39.92508 -104.69824 7169 ft 187 kts 329°
2026-05-04 00:39 39.93343 -104.71125 7336 ft 198 kts 287°
2026-05-04 00:39 39.93513 -104.72941 7544 ft 208 kts 271°
2026-05-04 00:40 39.93457 -104.74901 7696 ft 225 kts 268°
2026-05-04 00:40 39.93340 -104.77014 7830 ft 245 kts 267°
2026-05-04 00:40 39.93243 -104.79375 7957 ft 272 kts 269°
2026-05-04 00:40 39.93196 -104.81874 8590 ft 278 kts 270°
2026-05-04 00:41 39.93181 -104.84404 9369 ft 281 kts 271°
2026-05-04 00:41 39.93187 -104.86963 9818 ft 285 kts 271°
2026-05-04 00:41 39.93197 -104.89545 9918 ft 285 kts 271°
2026-05-04 00:41 39.93219 -104.92131 10105 ft 287 kts 272°
2026-05-04 00:42 39.93273 -104.94734 10857 ft 289 kts 273°
2026-05-04 00:42 39.93340 -104.97355 11618 ft 290 kts 273°
2026-05-04 00:42 39.93413 -104.99982 12413 ft 291 kts 274°
2026-05-04 00:42 39.93485 -105.02627 13301 ft 293 kts 274°
2026-05-04 00:43 39.93556 -105.05296 14003 ft 297 kts 273°
2026-05-04 00:43 39.93625 -105.07994 14681 ft 299 kts 273°
2026-05-04 00:43 39.93690 -105.10719 15340 ft 302 kts 272°
2026-05-04 00:43 39.93751 -105.13468 16015 ft 305 kts 272°
2026-05-04 00:44 39.93810 -105.16245 16710 ft 307 kts 272°
2026-05-04 00:44 39.93866 -105.19043 17372 ft 311 kts 272°
2026-05-04 00:44 39.93924 -105.21867 18057 ft 313 kts 272°
2026-05-04 00:44 39.94051 -105.24709 18639 ft 315 kts 275°
2026-05-04 00:45 39.94259 -105.27560 19213 ft 318 kts 276°
2026-05-04 00:45 39.94500 -105.30396 19758 ft 319 kts 276°
2026-05-04 00:45 39.94757 -105.33310 20381 ft 320 kts 276°
2026-05-04 00:45 39.95005 -105.36166 20942 ft 323 kts 276°
2026-05-04 00:46 39.95248 -105.39095 21504 ft 327 kts 276°
2026-05-04 00:46 39.95495 -105.42135 21763 ft 341 kts 276°
2026-05-04 00:46 39.95746 -105.45283 21887 ft 357 kts 276°
2026-05-04 00:46 39.95997 -105.48498 22188 ft 366 kts 276°
2026-05-04 00:47 39.96253 -105.51824 22693 ft 370 kts 276°
2026-05-04 00:47 39.96510 -105.55182 23218 ft 374 kts 276°
2026-05-04 00:47 39.96771 -105.58568 23712 ft 377 kts 276°
2026-05-04 00:47 39.97034 -105.61980 24145 ft 379 kts 276°
2026-05-04 00:48 39.97298 -105.65413 24628 ft 381 kts 276°
2026-05-04 00:48 39.97541 -105.68870 24993 ft 386 kts 275°
2026-05-04 00:48 39.97736 -105.72380 25386 ft 390 kts 274°
2026-05-04 00:48 39.97901 -105.75918 25834 ft 392 kts 274°
2026-05-04 00:49 39.98058 -105.79479 26304 ft 394 kts 274°
2026-05-04 00:49 39.98219 -105.83058 26740 ft 397 kts 274°
2026-05-04 00:49 39.98387 -105.86659 27135 ft 399 kts 274°
2026-05-04 00:49 39.98561 -105.90280 27524 ft 401 kts 274°
2026-05-04 00:50 39.98739 -105.93921 27918 ft 403 kts 274°
2026-05-04 00:50 39.98919 -105.97572 28291 ft 406 kts 274°
2026-05-04 00:50 39.99100 -106.01250 28671 ft 407 kts 274°
2026-05-04 00:50 39.99282 -106.04941 29075 ft 409 kts 274°
2026-05-04 00:51 39.99461 -106.08649 29442 ft 411 kts 274°
2026-05-04 00:51 39.99637 -106.12376 29804 ft 413 kts 274°
2026-05-04 00:51 39.99812 -106.16121 30124 ft 415 kts 274°
2026-05-04 00:51 39.99983 -106.19835 30406 ft 417 kts 274°
2026-05-04 00:52 40.00159 -106.23614 30685 ft 418 kts 274°
2026-05-04 00:52 40.00335 -106.27408 31001 ft 420 kts 274°
2026-05-04 00:52 40.00511 -106.31215 31338 ft 421 kts 274°
2026-05-04 00:52 40.00684 -106.35016 31776 ft 419 kts 274°
2026-05-04 00:53 40.00854 -106.38799 32249 ft 417 kts 273°
2026-05-04 00:53 40.01022 -106.42564 32701 ft 415 kts 273°
2026-05-04 00:53 40.01187 -106.46304 33146 ft 413 kts 273°
2026-05-04 00:53 40.01351 -106.50037 33615 ft 411 kts 273°
2026-05-04 00:54 40.01516 -106.53758 33887 ft 411 kts 273°
2026-05-04 00:54 40.01677 -106.57433 33928 ft 400 kts 273°
2026-05-04 00:54 40.01835 -106.61029 33928 ft 395 kts 273°
2026-05-04 00:55 40.02143 -106.68149 33931 ft 392 kts 273°
2026-05-04 00:55 40.02440 -106.75259 33931 ft 393 kts 273°
2026-05-04 00:56 40.02730 -106.82384 33945 ft 393 kts 273°
2026-05-04 00:56 40.03023 -106.89513 33944 ft 394 kts 273°
2026-05-04 00:57 40.03317 -106.96636 33961 ft 393 kts 273°
2026-05-04 00:57 40.03599 -107.03765 33961 ft 393 kts 273°
2026-05-04 00:58 40.03873 -107.10852 33950 ft 394 kts 273°
2026-05-04 00:58 40.04145 -107.18002 33950 ft 395 kts 273°
2026-05-04 00:59 40.04415 -107.25165 33956 ft 395 kts 272°
2026-05-04 00:59 40.04680 -107.32335 33962 ft 395 kts 272°
2026-05-04 01:00 40.04946 -107.39499 33953 ft 395 kts 272°
2026-05-04 01:00 40.05210 -107.46661 33941 ft 396 kts 272°
2026-05-04 01:01 40.05463 -107.53836 33923 ft 396 kts 272°
2026-05-04 01:01 40.05708 -107.61016 33902 ft 396 kts 272°
2026-05-04 01:02 40.05950 -107.68204 33900 ft 396 kts 272°
2026-05-04 01:02 40.06194 -107.75395 33873 ft 397 kts 272°
2026-05-04 01:03 40.06427 -107.82594 34018 ft 397 kts 272°
2026-05-04 01:03 40.06653 -107.89812 34019 ft 398 kts 272°
2026-05-04 01:04 40.06912 -107.97030 34020 ft 399 kts 273°
2026-05-04 01:04 40.07259 -108.04259 34001 ft 399 kts 273°
2026-05-04 01:05 40.07620 -108.11491 33968 ft 399 kts 273°
2026-05-04 01:05 40.07956 -108.18726 33841 ft 399 kts 273°
2026-05-04 01:06 40.08270 -108.25960 33843 ft 399 kts 273°
2026-05-04 01:06 40.08576 -108.33144 33845 ft 399 kts 273°
2026-05-04 01:07 40.08883 -108.40421 33852 ft 399 kts 272°
2026-05-04 01:07 40.09184 -108.47643 33831 ft 399 kts 272°
2026-05-04 01:08 40.09476 -108.54838 33827 ft 400 kts 272°
2026-05-04 01:08 40.09774 -108.62101 33825 ft 401 kts 273°
2026-05-04 01:09 40.10076 -108.69375 33831 ft 401 kts 272°
2026-05-04 01:09 40.10364 -108.76657 33825 ft 402 kts 272°
2026-05-04 01:10 40.10638 -108.83949 33815 ft 402 kts 272°
2026-05-04 01:10 40.10922 -108.91260 33811 ft 403 kts 272°
2026-05-04 01:11 40.11198 -108.98576 33809 ft 404 kts 272°
2026-05-04 01:11 40.11477 -109.05913 33812 ft 405 kts 272°
2026-05-04 01:12 40.11746 -109.13260 33753 ft 406 kts 272°
2026-05-04 01:12 40.11876 -109.16945 33470 ft 406 kts 272°
2026-05-04 01:12 40.12003 -109.20631 33198 ft 406 kts 272°
2026-05-04 01:12 40.12133 -109.24321 32930 ft 407 kts 272°
2026-05-04 01:13 40.12263 -109.28015 32652 ft 407 kts 272°
2026-05-04 01:13 40.12390 -109.31713 32397 ft 408 kts 272°
2026-05-04 01:13 40.12514 -109.35416 32143 ft 408 kts 272°
2026-05-04 01:13 40.12636 -109.39126 31902 ft 409 kts 272°
2026-05-04 01:14 40.12718 -109.41583 31732 ft 410 kts 272°
2026-05-04 01:14 40.12842 -109.45300 31472 ft 409 kts 272°
2026-05-04 01:14 40.12967 -109.49003 31232 ft 407 kts 271°
2026-05-04 01:14 40.13092 -109.52689 30982 ft 405 kts 271°
2026-05-04 01:15 40.13216 -109.56359 30733 ft 403 kts 271°
2026-05-04 01:15 40.13377 -109.61192 30403 ft 401 kts 271°
2026-05-04 01:15 40.13493 -109.64825 30157 ft 399 kts 271°
2026-05-04 01:15 40.13607 -109.68443 29912 ft 398 kts 271°
2026-05-04 01:16 40.13683 -109.70882 29706 ft 397 kts 271°
2026-05-04 01:16 40.13797 -109.74476 29423 ft 395 kts 271°
2026-05-04 01:16 40.13908 -109.78056 29148 ft 393 kts 271°
2026-05-04 01:16 40.14012 -109.81574 28880 ft 392 kts 271°
2026-05-04 01:17 40.14117 -109.85173 28602 ft 390 kts 271°
2026-05-04 01:17 40.14220 -109.88656 28334 ft 389 kts 271°
2026-05-04 01:17 40.14325 -109.92182 28065 ft 388 kts 271°
2026-05-04 01:17 40.14428 -109.95696 27796 ft 386 kts 271°
2026-05-04 01:18 40.14531 -109.99200 27541 ft 385 kts 271°
2026-05-04 01:18 40.14631 -110.02694 27278 ft 384 kts 271°
2026-05-04 01:18 40.14727 -110.06177 27020 ft 383 kts 271°
2026-05-04 01:18 40.14822 -110.09650 26775 ft 382 kts 271°
2026-05-04 01:19 40.14914 -110.13113 26522 ft 381 kts 270°
2026-05-04 01:19 40.14951 -110.16574 26267 ft 381 kts 269°
2026-05-04 01:19 40.14933 -110.20038 26014 ft 381 kts 268°
2026-05-04 01:19 40.14887 -110.23497 25790 ft 380 kts 268°
2026-05-04 01:20 40.14834 -110.26948 25546 ft 379 kts 268°
2026-05-04 01:20 40.14785 -110.30391 25294 ft 378 kts 268°
2026-05-04 01:20 40.14745 -110.33818 25081 ft 378 kts 268°
2026-05-04 01:20 40.14709 -110.37246 24843 ft 377 kts 268°
2026-05-04 01:21 40.14675 -110.40665 24604 ft 376 kts 268°
2026-05-04 01:21 40.14643 -110.44071 24368 ft 373 kts 268°
2026-05-04 01:21 40.14613 -110.47456 24151 ft 372 kts 268°
2026-05-04 01:21 40.14582 -110.50831 23918 ft 371 kts 268°
2026-05-04 01:22 40.14549 -110.54200 23691 ft 370 kts 268°
2026-05-04 01:22 40.14513 -110.57560 23458 ft 369 kts 268°
2026-05-04 01:22 40.14477 -110.60911 23211 ft 368 kts 268°
2026-05-04 01:22 40.14441 -110.64251 22934 ft 367 kts 268°
2026-05-04 01:23 40.14404 -110.67577 22657 ft 365 kts 268°
2026-05-04 01:23 40.14366 -110.70844 22399 ft 363 kts 268°
2026-05-04 01:23 40.14327 -110.74143 22140 ft 363 kts 268°
2026-05-04 01:23 40.14287 -110.77470 21883 ft 362 kts 268°
2026-05-04 01:24 40.14245 -110.80710 21624 ft 361 kts 268°
2026-05-04 01:24 40.14200 -110.83979 21366 ft 359 kts 268°
2026-05-04 01:24 40.14154 -110.87234 21110 ft 358 kts 268°
2026-05-04 01:24 40.14109 -110.90480 20858 ft 357 kts 268°
2026-05-04 01:25 40.14065 -110.93716 20607 ft 356 kts 268°
2026-05-04 01:25 40.14021 -110.96946 20356 ft 355 kts 268°
2026-05-04 01:25 40.13977 -111.00170 20106 ft 354 kts 268°
2026-05-04 01:25 40.13930 -111.03388 19858 ft 354 kts 268°
2026-05-04 01:26 40.13881 -111.06598 19623 ft 353 kts 268°
2026-05-04 01:26 40.13831 -111.09800 19377 ft 352 kts 268°
2026-05-04 01:26 40.13781 -111.12995 19136 ft 351 kts 268°
2026-05-04 01:26 40.13729 -111.16182 18889 ft 350 kts 268°
2026-05-04 01:27 40.13677 -111.19363 18656 ft 350 kts 268°
2026-05-04 01:27 40.13625 -111.22531 18424 ft 349 kts 268°
2026-05-04 01:27 40.13568 -111.25698 18189 ft 348 kts 268°
2026-05-04 01:27 40.13514 -111.28829 17824 ft 342 kts 268°
2026-05-04 01:28 40.13460 -111.31921 17393 ft 339 kts 268°
2026-05-04 01:28 40.13403 -111.34982 16971 ft 335 kts 268°
2026-05-04 01:28 40.13345 -111.38016 16553 ft 333 kts 268°
2026-05-04 01:28 40.13291 -111.40986 16151 ft 329 kts 268°
2026-05-04 01:29 40.13240 -111.43958 15795 ft 325 kts 268°
2026-05-04 01:29 40.13186 -111.46905 15399 ft 323 kts 268°
2026-05-04 01:29 40.13133 -111.49825 15107 ft 318 kts 268°
2026-05-04 01:29 40.13090 -111.52685 14934 ft 312 kts 271°
2026-05-04 01:30 40.13379 -111.55486 14836 ft 311 kts 284°
2026-05-04 01:30 40.14144 -111.58132 14751 ft 312 kts 294°
2026-05-04 01:30 40.15025 -111.60715 14550 ft 312 kts 293°
2026-05-04 01:30 40.15901 -111.63305 14347 ft 311 kts 293°
2026-05-04 01:31 40.16796 -111.65874 14142 ft 310 kts 298°
2026-05-04 01:31 40.18022 -111.68180 13941 ft 309 kts 312°
2026-05-04 01:31 40.19576 -111.70121 13752 ft 309 kts 317°
2026-05-04 01:31 40.21164 -111.72009 13538 ft 308 kts 317°
2026-05-04 01:32 40.22746 -111.73896 13332 ft 307 kts 317°
2026-05-04 01:32 40.24321 -111.75781 13128 ft 306 kts 317°
2026-05-04 01:32 40.25888 -111.77664 12925 ft 305 kts 317°
2026-05-04 01:32 40.27453 -111.79541 12741 ft 305 kts 317°
2026-05-04 01:33 40.29011 -111.81408 12533 ft 302 kts 317°
2026-05-04 01:33 40.30526 -111.83224 12376 ft 285 kts 317°
2026-05-04 01:33 40.32017 -111.84813 11961 ft 271 kts 330°
2026-05-04 01:33 40.33672 -111.85855 11607 ft 254 kts 335°
2026-05-04 01:34 40.35256 -111.86723 11226 ft 242 kts 336°
2026-05-04 01:34 40.36790 -111.87557 10697 ft 236 kts 336°
2026-05-04 01:34 40.38291 -111.88375 10006 ft 232 kts 336°
2026-05-04 01:34 40.39786 -111.89189 9307 ft 233 kts 337°
2026-05-04 01:35 40.41274 -111.90008 8746 ft 231 kts 336°
2026-05-04 01:35 40.42766 -111.90754 8192 ft 229 kts 344°
2026-05-04 01:35 40.44311 -111.91206 7654 ft 227 kts 348°
2026-05-04 01:35 40.45852 -111.91608 7117 ft 225 kts 348°
2026-05-04 01:36 40.47379 -111.92007 6631 ft 223 kts 348°
2026-05-04 01:36 40.48891 -111.92406 6179 ft 220 kts 348°
2026-05-04 01:36 40.50385 -111.92793 6102 ft 219 kts 348°
2026-05-04 01:36 40.51870 -111.93177 6117 ft 221 kts 349°
2026-05-04 01:37 40.53381 -111.93582 6128 ft 219 kts 347°
2026-05-04 01:37 40.54807 -111.94270 6128 ft 220 kts 335°
2026-05-04 01:37 40.56264 -111.94861 6127 ft 221 kts 351°
2026-05-04 01:37 40.57797 -111.95060 6131 ft 221 kts 355°
2026-05-04 01:38 40.59330 -111.95221 6122 ft 221 kts 356°
2026-05-04 01:38 40.60854 -111.95391 6122 ft 213 kts 355°
2026-05-04 01:38 40.62221 -111.95549 6118 ft 183 kts 354°
2026-05-04 01:38 40.63396 -111.95685 6131 ft 162 kts 355°
2026-05-04 01:39 40.64477 -111.95809 6127 ft 156 kts 354°
2026-05-04 01:39 40.65551 -111.95934 6127 ft 154 kts 354°
2026-05-04 01:39 40.66619 -111.96057 6126 ft 154 kts 354°
2026-05-04 01:39 40.67684 -111.96180 6120 ft 154 kts 354°
2026-05-04 01:40 40.68750 -111.96303 5992 ft 154 kts 355°
2026-05-04 01:40 40.69812 -111.96426 5804 ft 153 kts 355°
2026-05-04 01:40 40.70869 -111.96549 5599 ft 152 kts 354°
2026-05-04 01:40 40.71915 -111.96669 5385 ft 150 kts 355°
2026-05-04 01:41 40.72952 -111.96787 5213 ft 149 kts 354°
2026-05-04 01:41 40.73985 -111.96907 5002 ft 149 kts 354°
2026-05-04 01:41 40.75013 -111.97032 4750 ft 147 kts 353°
2026-05-04 01:41 40.76034 -111.97157 4539 ft 147 kts 356°
2026-05-04 01:42 40.77051 -111.97263 4365 ft 146 kts 354°
2026-05-04 01:42 40.78060 -111.97367 4263 ft 143 kts 354°
2026-05-04 01:42 40.78945 -111.97490 4234 ft 108 kts 354°
2026-05-04 01:42 40.79514 -111.97553 4231 ft 57 kts 355°
2026-05-04 01:43 40.79680 -111.97601 4230 ft 14 kts 319°
2026-05-04 01:43 40.79691 -111.97702 4234 ft 10 kts 262°
2026-05-04 01:43 40.79680 -111.97823 4234 ft 17 kts 262°
2026-05-04 01:43 40.79607 -111.97875 4235 ft 11 kts 169°
2026-05-04 01:44 40.79535 -111.97865 4234 ft 9 kts 176°
2026-05-04 01:44 40.79476 -111.97861 4234 ft 8 kts 177°
2026-05-04 01:44 40.78641 -111.98268 4235 ft 0 kts 174°